Date String (YYYY-MM-DD hh:mm:ss) UTC,Instrument flags,Ambient pressure (hPa),Sample flow (lpm),Bypass flow (lpm),Sample temperature (°C),Ambient temperature (°C),ASC tube jacket temperature (°C),LED temperature (°C),Box temperature (°C),Sample RH (%),Span deviation,Mass concentration (μg/m³),Mass concentration (μg/m³),Mass concentration (μg/m³)
DateTimeUTC,F1_M11,P_M11,Q1_M11,Q2_M11,T1_M11,T2_M11,T3_M11,T4_M11,T5_M11,U1_M11,ZSPAN_M11,X0_M11,X2_M11,X1_M11
2022-01-28 02:00:00,,0836.2,5.00,0.00,21.9,22.1,00.0,30.9,23.7,09.8,0001.0,0011.42,0005.86,0005.36
2022-01-28 02:01:00,,0836.2,4.99,0.00,21.9,21.8,00.0,30.9,23.5,09.8,0003.9,0011.67,0006.05,0005.53
2022-01-28 02:02:00,,0836.1,5.01,0.00,21.8,21.6,00.0,30.9,23.5,09.8,0003.5,0011.34,0006.25,0005.72
2022-01-28 02:03:00,,0836.1,4.99,0.00,21.8,21.4,00.0,30.8,23.4,09.8,0003.0,0010.96,0006.43,0005.87
2022-01-28 02:04:00,,0836.0,5.01,0.00,21.7,21.2,00.0,30.8,23.3,09.8,0003.7,0011.37,0006.66,0006.06
2022-01-28 02:05:00,,0836.1,5.00,0.00,21.7,21.1,00.0,30.8,23.3,09.8,0003.9,0011.75,0006.87,0006.25
2022-01-28 02:06:00,,0836.1,5.01,0.00,21.7,21.0,00.0,30.8,23.2,09.8,0003.5,0011.70,0007.07,0006.44
2022-01-28 02:07:00,,0836.1,4.98,0.00,21.6,20.9,00.0,30.8,23.2,09.8,0003.6,0011.81,0007.22,0006.57
2022-01-28 02:08:00,,0836.1,5.00,0.00,21.6,20.8,00.0,30.7,23.1,09.8,0003.4,0011.09,0007.36,0006.70
2022-01-28 02:09:00,,0836.2,5.01,0.00,21.5,20.9,00.0,30.7,23.1,09.8,0003.8,0011.27,0007.48,0006.81
2022-01-28 02:10:00,,0836.2,5.01,0.00,21.6,21.6,00.0,30.7,23.4,09.7,0003.5,0011.31,0007.53,0006.87
2022-01-28 02:11:00,,0836.2,5.00,0.00,21.8,22.4,00.0,30.8,23.7,09.6,0003.7,0011.29,0007.51,0006.87
2022-01-28 02:12:00,,0836.2,5.01,0.00,21.9,23.0,00.0,30.8,23.9,09.6,0003.6,0011.22,0007.48,0006.84
2022-01-28 02:13:00,,0836.2,4.99,0.00,22.0,22.8,00.0,30.9,23.9,09.5,0004.0,0011.20,0007.45,0006.79
2022-01-28 02:14:00,,0836.2,5.01,0.00,22.0,22.4,00.0,30.9,23.8,09.5,0003.6,0011.21,0007.44,0006.78
2022-01-28 02:15:00,,0836.2,4.99,0.00,22.0,22.1,00.0,30.9,23.7,09.4,0002.0,0011.15,0007.37,0006.72
2022-01-28 02:16:00,,0836.1,4.99,0.00,21.9,21.8,00.0,30.9,23.6,09.4,0002.1,0010.78,0007.25,0006.63
2022-01-28 02:17:00,,0836.2,5.01,0.00,21.9,21.6,00.0,30.9,23.5,09.5,0002.9,0010.67,0007.13,0006.51
2022-01-28 02:18:00,,0836.2,5.00,0.00,21.8,21.4,00.0,30.9,23.4,09.5,0002.0,0010.51,0007.00,0006.40
2022-01-28 02:19:00,,0836.2,4.99,0.00,21.8,21.3,00.0,30.8,23.3,09.5,0003.3,0010.36,0006.89,0006.30
2022-01-28 02:20:00,,0836.2,5.01,0.00,21.7,21.1,00.0,30.8,23.3,09.5,0001.6,0010.25,0006.80,0006.21
2022-01-28 02:21:00,,0836.2,4.99,0.00,21.7,21.0,00.0,30.8,23.2,09.5,0001.4,0010.25,0006.73,0006.12
2022-01-28 02:22:00,,0836.2,5.01,0.00,21.6,20.9,00.0,30.8,23.2,09.5,0002.2,0010.26,0006.67,0006.04
2022-01-28 02:23:00,,0836.2,5.00,0.00,21.6,20.8,00.0,30.7,23.1,09.6,0000.9,0010.18,0006.59,0005.95
2022-01-28 02:24:00,,0836.2,5.00,0.00,21.5,20.9,00.0,30.7,23.1,09.6,-001.5,0009.96,0006.46,0005.85
2022-01-28 02:25:00,,0836.2,4.99,0.00,21.6,21.6,00.0,30.8,23.4,09.5,-000.3,0009.75,0006.32,0005.73
2022-01-28 02:26:00,,0836.2,5.01,0.00,21.8,22.4,00.0,30.8,23.7,09.4,-000.6,0009.56,0006.22,0005.65
2022-01-28 02:27:00,,0836.2,4.99,0.00,21.9,22.9,00.0,30.8,23.9,09.2,0000.0,0009.51,0006.20,0005.59
2022-01-28 02:28:00,,0836.2,5.01,0.00,22.0,22.7,00.0,30.9,23.9,09.1,0000.0,0009.40,0006.17,0005.58
2022-01-28 02:29:00,,0836.1,5.00,0.00,22.0,22.3,00.0,30.9,23.8,09.1,0000.0,0009.32,0006.14,0005.59
2022-01-28 02:30:00,,0836.2,4.99,0.00,21.9,22.0,00.0,30.9,23.6,09.1,0000.0,0009.16,0006.08,0005.56
2022-01-28 02:31:00,,0836.1,5.01,0.00,21.9,21.7,00.0,30.9,23.5,09.1,0000.0,0009.12,0006.04,0005.53
2022-01-28 02:32:00,,0836.1,4.98,0.00,21.8,21.5,00.0,30.8,23.4,09.1,0000.0,0009.02,0006.02,0005.54
2022-01-28 02:33:00,,0836.0,5.01,0.00,21.8,21.3,00.0,30.8,23.3,09.1,0000.0,0008.93,0005.98,0005.53
2022-01-28 02:34:00,,0836.1,5.00,0.00,21.7,21.1,00.0,30.8,23.2,09.1,0000.0,0008.84,0005.95,0005.54
2022-01-28 02:35:00,,0835.9,5.01,0.00,21.6,21.0,00.0,30.8,23.2,09.0,0000.0,0008.91,0005.98,0005.56
2022-01-28 02:36:00,,0836.0,5.01,0.00,21.6,20.9,00.0,30.8,23.1,09.0,0000.3,0008.93,0006.01,0005.59
2022-01-28 02:37:00,,0836.0,5.00,0.00,21.5,20.8,00.0,30.7,23.1,09.0,0000.2,0008.94,0006.03,0005.61
2022-01-28 02:38:00,,0836.0,5.00,0.00,21.6,21.4,00.0,30.7,23.3,09.0,0000.4,0008.96,0006.04,0005.63
2022-01-28 02:39:00,,0836.1,5.01,0.00,21.8,22.2,00.0,30.8,23.6,08.9,0000.8,0009.24,0006.06,0005.64
2022-01-28 02:40:00,,0836.2,4.99,0.00,21.9,22.9,00.0,30.8,23.9,08.9,0001.0,0009.32,0006.07,0005.63
2022-01-28 02:41:00,,0836.1,5.01,0.00,22.0,22.8,00.0,30.9,24.0,08.7,0001.5,0009.38,0006.10,0005.65
2022-01-28 02:42:00,,0836.0,5.00,0.00,22.0,22.4,00.0,30.9,23.9,08.7,0001.0,0009.38,0006.12,0005.68
2022-01-28 02:43:00,,0836.0,5.00,0.00,22.0,22.1,00.0,30.9,23.7,08.7,0002.0,0009.36,0006.13,0005.70
2022-01-28 02:44:00,,0836.0,4.99,0.00,21.9,21.8,00.0,30.9,23.6,08.6,0002.8,0009.41,0006.19,0005.75
2022-01-28 02:45:00,,0835.9,5.02,0.00,21.8,21.5,00.0,30.9,23.5,08.7,0003.1,0009.47,0006.24,0005.79
2022-01-28 02:46:00,,0835.9,4.98,0.00,21.8,21.3,00.0,30.8,23.4,08.7,0002.6,0009.49,0006.27,0005.83
2022-01-28 02:47:00,,0835.9,5.01,0.00,21.7,21.2,00.0,30.8,23.3,08.7,0002.2,0009.59,0006.31,0005.86
2022-01-28 02:48:00,,0835.9,5.00,0.00,21.7,21.0,00.0,30.8,23.2,08.7,0002.1,0009.62,0006.33,0005.88
2022-01-28 02:49:00,,0835.9,5.00,0.00,21.6,20.9,00.0,30.8,23.1,08.8,0002.8,0009.64,0006.35,0005.89
2022-01-28 02:50:00,,0835.9,5.00,0.00,21.6,20.8,00.0,30.8,23.1,08.8,0002.7,0009.31,0006.32,0005.92
2022-01-28 02:51:00,,0836.0,4.99,0.00,21.6,21.1,00.0,30.7,23.2,08.8,0002.8,0009.28,0006.34,0005.94
2022-01-28 02:52:00,,0835.9,5.00,0.00,21.7,21.9,00.0,30.8,23.5,08.7,0003.1,0009.31,0006.36,0005.95
2022-01-28 02:53:00,,0835.9,5.01,0.00,21.9,22.7,00.0,30.8,23.8,08.6,0003.5,0009.36,0006.37,0005.97
2022-01-28 02:54:00,,0835.9,4.99,0.00,22.0,22.8,00.0,30.9,23.9,08.5,0002.9,0009.36,0006.36,0005.96
2022-01-28 02:55:00,,0835.9,5.00,0.00,22.0,22.4,00.0,30.9,23.8,08.5,0002.1,0009.35,0006.37,0005.97
2022-01-28 02:56:00,,0835.9,5.00,0.00,21.9,22.0,00.0,30.9,23.7,08.5,0001.6,0009.37,0006.37,0005.97
2022-01-28 02:57:00,,0836.0,4.99,0.00,21.9,21.7,00.0,30.9,23.5,08.5,0002.2,0009.27,0006.32,0005.95
2022-01-28 02:58:00,,0836.0,5.00,0.00,21.8,21.5,00.0,30.9,23.4,08.6,0002.7,0009.22,0006.29,0005.93
2022-01-28 02:59:00,,0836.0,5.00,0.00,21.8,21.2,00.0,30.8,23.3,08.6,0003.0,0009.14,0006.27,0005.93
